Location: Diebersbach
(48.5163°N, 8.0558°E)
Time: 21:23:38
(UTC+00:00)

USA 229 - Pass Details

Date: 02 November 2021
Orbit: 946 x 1266 km, 63.4° (Epoch: 25 November)

Event Time Altitude Azimuth Distance (km) Brightness Sun altitude
Rises 18:05:30 0° 257° (WSW) 3,688 8.0 -20.1°
Reaches altitude 10° 18:08:15 10° 266° (W) 2,777 7.1 -20.5°
Maximum altitude 18:14:12 36° 332° (NNW) 1,615 4.9 -21.5°
Enters shadow 18:19:36 14° 33° (NNE) 2,668 5.5 -22.4°
